DEOOL ELLX-EDGS

Flight info

Callsign DEOOL
Flight time 0h 47m
Altitude 3500
Route DCT
Aircraft DA40/L-VGDW/C

Departure

Time 2026-05-07 09:04
Airport Luxembourg-Findel International Airport (ELLX)

Arrival

Time 2026-05-07 09:52
Airport Siegerland Airport (EDGS)
Time Latitude Longitude Altitude Speed Heading
2026-05-07 08:44 49.62585 6.20231 1190 ft 0 kts 46°
2026-05-07 09:00 49.62596 6.20235 1190 ft 2 kts 280°
2026-05-07 09:00 49.62567 6.20226 1190 ft 5 kts 173°
2026-05-07 09:01 49.62538 6.20241 1190 ft 0 kts 134°
2026-05-07 09:01 49.62508 6.20267 1191 ft 8 kts 177°
2026-05-07 09:01 49.62470 6.20204 1192 ft 12 kts 240°
2026-05-07 09:01 49.62418 6.20069 1192 ft 17 kts 241°
2026-05-07 09:02 49.62369 6.19934 1192 ft 13 kts 242°
2026-05-07 09:02 49.62328 6.19825 1192 ft 11 kts 242°
2026-05-07 09:02 49.62273 6.19675 1191 ft 16 kts 240°
2026-05-07 09:02 49.62230 6.19565 1191 ft 8 kts 220°
2026-05-07 09:03 49.62169 6.19569 1194 ft 11 kts 144°
2026-05-07 09:03 49.62101 6.19643 1200 ft 9 kts 117°
2026-05-07 09:03 49.62124 6.19751 1202 ft 13 kts 58°
2026-05-07 09:03 49.62258 6.20103 1206 ft 63 kts 60°
2026-05-07 09:04 49.62517 6.20831 1298 ft 84 kts 55°
2026-05-07 09:04 49.62805 6.21589 1564 ft 77 kts 49°
2026-05-07 09:04 49.63060 6.22429 1688 ft 89 kts 76°
2026-05-07 09:04 49.62940 6.23386 1856 ft 96 kts 114°
2026-05-07 09:05 49.62713 6.24416 1944 ft 106 kts 101°
2026-05-07 09:05 49.62556 6.25601 1991 ft 121 kts 97°
2026-05-07 09:05 49.62425 6.26947 1975 ft 133 kts 96°
2026-05-07 09:05 49.62302 6.28378 1997 ft 136 kts 96°
2026-05-07 09:06 49.62208 6.29344 2056 ft 134 kts 97°
2026-05-07 09:06 49.62062 6.30785 2012 ft 140 kts 96°
2026-05-07 09:06 49.61862 6.32761 1996 ft 142 kts 98°
2026-05-07 09:06 49.61672 6.34260 1964 ft 144 kts 99°
2026-05-07 09:07 49.61458 6.35761 1927 ft 142 kts 101°
2026-05-07 09:07 49.61305 6.36761 1912 ft 141 kts 101°
2026-05-07 09:07 49.61097 6.38210 1993 ft 136 kts 99°
2026-05-07 09:07 49.60901 6.39634 2037 ft 137 kts 100°
2026-05-07 09:08 49.60711 6.41071 2095 ft 139 kts 99°
2026-05-07 09:08 49.60524 6.42548 2066 ft 140 kts 99°
2026-05-07 09:08 49.60337 6.44021 2068 ft 139 kts 99°
2026-05-07 09:08 49.60155 6.45470 2117 ft 136 kts 98°
2026-05-07 09:09 49.59978 6.46893 2159 ft 135 kts 99°
2026-05-07 09:09 49.59801 6.48318 2190 ft 136 kts 99°
2026-05-07 09:09 49.59685 6.49742 2214 ft 136 kts 88°
2026-05-07 09:09 49.59727 6.51210 2234 ft 135 kts 85°
2026-05-07 09:10 49.59781 6.52623 2266 ft 134 kts 85°
2026-05-07 09:10 49.60011 6.54006 2286 ft 133 kts 66°
2026-05-07 09:10 49.60373 6.55319 2310 ft 133 kts 64°
2026-05-07 09:10 49.60733 6.56624 2348 ft 132 kts 64°
2026-05-07 09:11 49.61238 6.57785 2361 ft 132 kts 40°
2026-05-07 09:11 49.61966 6.58669 2390 ft 134 kts 36°
2026-05-07 09:11 49.62714 6.59535 2418 ft 135 kts 37°
2026-05-07 09:11 49.63423 6.60474 2444 ft 135 kts 40°
2026-05-07 09:12 49.64116 6.61439 2493 ft 133 kts 41°
2026-05-07 09:12 49.64801 6.62390 2557 ft 131 kts 41°
2026-05-07 09:12 49.65474 6.63313 2630 ft 128 kts 40°
2026-05-07 09:12 49.66131 6.64222 2689 ft 127 kts 41°
2026-05-07 09:13 49.66793 6.65138 2687 ft 128 kts 41°
2026-05-07 09:13 49.67463 6.66065 2689 ft 130 kts 41°
2026-05-07 09:13 49.68144 6.67003 2696 ft 133 kts 41°
2026-05-07 09:13 49.68839 6.67964 2687 ft 135 kts 41°
2026-05-07 09:14 49.69545 6.68943 2682 ft 137 kts 41°
2026-05-07 09:14 49.70249 6.69925 2677 ft 135 kts 41°
2026-05-07 09:14 49.70944 6.70896 2676 ft 134 kts 41°
2026-05-07 09:14 49.71634 6.71852 2676 ft 132 kts 41°
2026-05-07 09:15 49.72323 6.72807 2681 ft 133 kts 40°
2026-05-07 09:15 49.73014 6.73767 2675 ft 133 kts 41°
2026-05-07 09:15 49.73701 6.74724 2678 ft 133 kts 41°
2026-05-07 09:15 49.74391 6.75682 2676 ft 133 kts 41°
2026-05-07 09:16 49.75095 6.76607 2671 ft 132 kts 36°
2026-05-07 09:16 49.75846 6.77427 2676 ft 133 kts 34°
2026-05-07 09:16 49.76605 6.78242 2676 ft 133 kts 34°
2026-05-07 09:16 49.77365 6.79064 2661 ft 133 kts 33°
2026-05-07 09:17 49.78105 6.79913 2678 ft 133 kts 35°
2026-05-07 09:17 49.78863 6.80773 2680 ft 137 kts 34°
2026-05-07 09:17 49.79634 6.81641 2676 ft 137 kts 33°
2026-05-07 09:17 49.80396 6.82514 2668 ft 135 kts 34°
2026-05-07 09:18 49.81137 6.83398 2669 ft 135 kts 36°
2026-05-07 09:18 49.81883 6.84276 2667 ft 135 kts 36°
2026-05-07 09:18 49.82630 6.85149 2666 ft 135 kts 35°
2026-05-07 09:18 49.83377 6.86024 2668 ft 134 kts 35°
2026-05-07 09:19 49.84116 6.86896 2675 ft 133 kts 34°
2026-05-07 09:19 49.84837 6.87760 2670 ft 130 kts 34°
2026-05-07 09:19 49.85558 6.88618 2669 ft 131 kts 35°
2026-05-07 09:19 49.86294 6.89476 2668 ft 134 kts 35°
2026-05-07 09:20 49.87034 6.90342 2673 ft 134 kts 34°
2026-05-07 09:20 49.87774 6.91226 2683 ft 134 kts 34°
2026-05-07 09:20 49.88517 6.92115 2681 ft 135 kts 35°
2026-05-07 09:20 49.89255 6.92997 2679 ft 131 kts 35°
2026-05-07 09:21 49.89975 6.93843 2671 ft 130 kts 34°
2026-05-07 09:21 49.90703 6.94711 2673 ft 131 kts 34°
2026-05-07 09:21 49.91417 6.95567 2676 ft 132 kts 35°
2026-05-07 09:21 49.92151 6.96438 2689 ft 134 kts 35°
2026-05-07 09:22 49.92900 6.97318 2688 ft 137 kts 36°
2026-05-07 09:22 49.93670 6.98208 2686 ft 137 kts 34°
2026-05-07 09:22 49.94422 6.99094 2670 ft 135 kts 34°
2026-05-07 09:22 49.95154 6.99965 2691 ft 133 kts 35°
2026-05-07 09:23 49.95887 7.00834 2693 ft 132 kts 35°
2026-05-07 09:23 49.96619 7.01694 2696 ft 132 kts 33°
2026-05-07 09:23 49.97377 7.02536 2696 ft 136 kts 33°
2026-05-07 09:23 49.98150 7.03386 2688 ft 136 kts 33°
2026-05-07 09:24 49.98909 7.04240 2692 ft 133 kts 33°
2026-05-07 09:24 49.99664 7.05084 2694 ft 134 kts 33°
2026-05-07 09:24 50.00423 7.05924 2691 ft 133 kts 33°
2026-05-07 09:24 50.01172 7.06759 2691 ft 132 kts 33°
2026-05-07 09:25 50.01922 7.07596 2687 ft 133 kts 33°
2026-05-07 09:25 50.02671 7.08432 2680 ft 132 kts 33°
2026-05-07 09:25 50.03410 7.09257 2683 ft 130 kts 33°
2026-05-07 09:25 50.04145 7.10067 2667 ft 130 kts 32°
2026-05-07 09:26 50.04885 7.10888 2668 ft 131 kts 33°
2026-05-07 09:26 50.05630 7.11717 2657 ft 130 kts 34°
2026-05-07 09:26 50.06351 7.12505 2676 ft 125 kts 30°
2026-05-07 09:26 50.07094 7.13246 2670 ft 130 kts 31°
2026-05-07 09:27 50.07874 7.14008 2672 ft 134 kts 30°
2026-05-07 09:27 50.08659 7.14789 2669 ft 134 kts 29°
2026-05-07 09:27 50.10245 7.16391 2669 ft 139 kts 31°
2026-05-07 09:28 50.11059 7.17202 2664 ft 138 kts 31°
2026-05-07 09:28 50.11865 7.17987 2664 ft 136 kts 30°
2026-05-07 09:28 50.12662 7.18768 2664 ft 134 kts 30°
2026-05-07 09:28 50.13446 7.19539 2664 ft 132 kts 29°
2026-05-07 09:29 50.14228 7.20308 2660 ft 133 kts 30°
2026-05-07 09:29 50.14995 7.21057 2684 ft 127 kts 30°
2026-05-07 09:29 50.15749 7.21810 2668 ft 130 kts 30°
2026-05-07 09:29 50.16511 7.22573 2678 ft 132 kts 29°
2026-05-07 09:30 50.17285 7.23356 2657 ft 132 kts 31°
2026-05-07 09:30 50.18058 7.24125 2675 ft 132 kts 31°
2026-05-07 09:30 50.18837 7.24890 2674 ft 132 kts 30°
2026-05-07 09:30 50.19622 7.25656 2673 ft 133 kts 27°
2026-05-07 09:31 50.20376 7.26442 2677 ft 127 kts 30°
2026-05-07 09:31 50.21090 7.27238 2679 ft 128 kts 31°
2026-05-07 09:31 50.21826 7.28041 2667 ft 126 kts 31°
2026-05-07 09:31 50.22541 7.28812 2693 ft 127 kts 30°
2026-05-07 09:32 50.23278 7.29588 2697 ft 129 kts 30°
2026-05-07 09:32 50.24024 7.30376 2693 ft 129 kts 30°
2026-05-07 09:32 50.24762 7.31172 2687 ft 128 kts 30°
2026-05-07 09:32 50.25497 7.31963 2690 ft 129 kts 31°
2026-05-07 09:33 50.26240 7.32751 2690 ft 129 kts 31°
2026-05-07 09:33 50.26986 7.33537 2689 ft 129 kts 31°
2026-05-07 09:33 50.27735 7.34337 2690 ft 131 kts 30°
2026-05-07 09:33 50.28481 7.35144 2699 ft 130 kts 30°
2026-05-07 09:34 50.29238 7.35945 2693 ft 131 kts 30°
2026-05-07 09:34 50.29999 7.36749 2688 ft 132 kts 31°
2026-05-07 09:34 50.30763 7.37540 2690 ft 132 kts 32°
2026-05-07 09:34 50.31408 7.38573 2697 ft 134 kts 45°
2026-05-07 09:35 50.31984 7.39735 2695 ft 135 kts 47°
2026-05-07 09:35 50.32570 7.40879 2696 ft 135 kts 48°
2026-05-07 09:35 50.33156 7.42028 2693 ft 134 kts 46°
2026-05-07 09:35 50.33732 7.43180 2693 ft 135 kts 47°
2026-05-07 09:36 50.34306 7.44328 2691 ft 133 kts 46°
2026-05-07 09:36 50.34878 7.45491 2698 ft 136 kts 47°
2026-05-07 09:36 50.35460 7.46669 2690 ft 137 kts 46°
2026-05-07 09:36 50.36091 7.47804 2704 ft 140 kts 43°
2026-05-07 09:37 50.36727 7.48989 2747 ft 140 kts 44°
2026-05-07 09:37 50.37342 7.50109 2906 ft 132 kts 45°
2026-05-07 09:37 50.37921 7.51165 3086 ft 125 kts 44°
2026-05-07 09:37 50.38472 7.52185 3267 ft 121 kts 45°
2026-05-07 09:38 50.39015 7.53166 3441 ft 117 kts 44°
2026-05-07 09:38 50.39530 7.54124 3616 ft 113 kts 44°
2026-05-07 09:38 50.40022 7.55062 3799 ft 109 kts 44°
2026-05-07 09:38 50.40505 7.55960 3987 ft 107 kts 45°
2026-05-07 09:39 50.40987 7.56839 4162 ft 106 kts 44°
2026-05-07 09:39 50.41470 7.57694 4341 ft 103 kts 45°
2026-05-07 09:39 50.41930 7.58534 4515 ft 100 kts 43°
2026-05-07 09:39 50.42393 7.59367 4714 ft 103 kts 45°
2026-05-07 09:40 50.42856 7.60222 4887 ft 101 kts 45°
2026-05-07 09:40 50.43309 7.61035 5071 ft 98 kts 45°
2026-05-07 09:40 50.43756 7.61837 5245 ft 97 kts 44°
2026-05-07 09:40 50.44220 7.62650 5322 ft 108 kts 43°
2026-05-07 09:41 50.44753 7.63584 5267 ft 121 kts 43°
2026-05-07 09:41 50.45330 7.64595 5210 ft 127 kts 45°
2026-05-07 09:41 50.45929 7.65635 5154 ft 130 kts 44°
2026-05-07 09:41 50.46541 7.66692 5106 ft 132 kts 45°
2026-05-07 09:42 50.47169 7.67757 5062 ft 134 kts 43°
2026-05-07 09:42 50.47805 7.68834 5009 ft 135 kts 43°
2026-05-07 09:42 50.48430 7.69921 4999 ft 133 kts 46°
2026-05-07 09:42 50.49055 7.70987 5003 ft 133 kts 43°
2026-05-07 09:43 50.49685 7.72053 5000 ft 133 kts 44°
2026-05-07 09:43 50.50311 7.73121 5001 ft 133 kts 45°
2026-05-07 09:43 50.50940 7.74196 5000 ft 134 kts 44°
2026-05-07 09:43 50.51552 7.75255 4996 ft 132 kts 44°
2026-05-07 09:44 50.52175 7.76325 4956 ft 135 kts 44°
2026-05-07 09:44 50.52819 7.77412 4877 ft 137 kts 44°
2026-05-07 09:44 50.53464 7.78514 4802 ft 137 kts 44°
2026-05-07 09:44 50.54105 7.79622 4728 ft 137 kts 44°
2026-05-07 09:45 50.54749 7.80738 4645 ft 138 kts 45°
2026-05-07 09:45 50.55396 7.81857 4566 ft 138 kts 43°
2026-05-07 09:45 50.56081 7.82908 4484 ft 138 kts 40°
2026-05-07 09:45 50.56773 7.83941 4404 ft 137 kts 41°
2026-05-07 09:46 50.57459 7.84977 4328 ft 137 kts 40°
2026-05-07 09:46 50.58146 7.86014 4249 ft 137 kts 40°
2026-05-07 09:46 50.58842 7.87051 4173 ft 138 kts 40°
2026-05-07 09:46 50.59536 7.88087 4094 ft 139 kts 40°
2026-05-07 09:47 50.60239 7.89140 4014 ft 139 kts 41°
2026-05-07 09:47 50.60935 7.90200 3938 ft 139 kts 41°
2026-05-07 09:47 50.61636 7.91254 3866 ft 140 kts 40°
2026-05-07 09:47 50.62348 7.92308 3791 ft 142 kts 40°
2026-05-07 09:48 50.63066 7.93372 3696 ft 142 kts 40°
2026-05-07 09:48 50.63782 7.94446 3617 ft 141 kts 40°
2026-05-07 09:48 50.64489 7.95509 3542 ft 140 kts 40°
2026-05-07 09:48 50.65198 7.96568 3459 ft 140 kts 40°
2026-05-07 09:49 50.65907 7.97619 3382 ft 139 kts 40°
2026-05-07 09:49 50.66607 7.98673 3308 ft 139 kts 40°
2026-05-07 09:49 50.67313 7.99737 3188 ft 143 kts 40°
2026-05-07 09:49 50.68037 8.00826 3060 ft 145 kts 41°
2026-05-07 09:50 50.68740 8.01935 2986 ft 142 kts 43°
2026-05-07 09:50 50.69446 8.03044 2855 ft 144 kts 41°
2026-05-07 09:50 50.70207 8.04053 2755 ft 141 kts 30°
2026-05-07 09:50 50.71039 8.04668 2704 ft 125 kts 16°
2026-05-07 09:51 50.71771 8.05206 2617 ft 106 kts 43°
2026-05-07 09:51 50.71804 8.06266 2391 ft 111 kts 126°
2026-05-07 09:51 50.71454 8.06913 2113 ft 121 kts 131°
2026-05-07 09:51 50.70958 8.07908 1973 ft 102 kts 127°
2026-05-07 09:52 50.70597 8.08633 1941 ft 68 kts 127°
2026-05-07 09:52 50.70447 8.08918 1947 ft 8 kts 141°
2026-05-07 09:52 50.70373 8.08921 1944 ft 18 kts 214°
2026-05-07 09:52 50.70321 8.08769 1927 ft 19 kts 304°
2026-05-07 09:53 50.70388 8.08629 1932 ft 15 kts 307°
2026-05-07 09:53 50.70460 8.08488 1936 ft 19 kts 308°
2026-05-07 09:53 50.70551 8.08307 1950 ft 21 kts 308°
2026-05-07 09:53 50.70638 8.08133 1956 ft 16 kts 307°
2026-05-07 09:54 50.70698 8.08014 1957 ft 12 kts 308°
2026-05-07 09:54 50.70746 8.07915 1967 ft 12 kts 307°
2026-05-07 09:54 50.70772 8.07813 1972 ft 8 kts 252°
2026-05-07 09:54 50.70754 8.07742 1978 ft 8 kts 265°
2026-05-07 09:55 50.70759 8.07731 1978 ft 0 kts 44°
2026-05-07 09:56 50.70759 8.07732 1978 ft 0 kts 43°
2026-05-07 09:56 50.70760 8.07732 1977 ft 0 kts 42°
2026-05-07 09:58 50.70760 8.07733 1977 ft 0 kts 39°
2026-05-07 09:59 50.70761 8.07733 1977 ft 0 kts 36°
2026-05-07 10:01 50.70761 8.07734 1975 ft 0 kts 33°
2026-05-07 10:02 50.70762 8.07734 1975 ft 0 kts 29°
2026-05-07 10:05 50.70762 8.07735 1975 ft 0 kts 24°
2026-05-07 10:06 50.70766 8.07737 1975 ft 7 kts 21°
2026-05-07 10:06 50.70818 8.07859 1970 ft 17 kts 50°
2026-05-07 10:06 50.70890 8.07956 1963 ft 10 kts 51°
2026-05-07 10:06 50.70872 8.08078 1959 ft 29 kts 117°
2026-05-07 10:07 50.70624 8.08573 1940 ft 83 kts 128°
2026-05-07 10:07 50.70224 8.09349 2062 ft 96 kts 123°
2026-05-07 10:07 50.69799 8.10198 2194 ft 98 kts 124°
2026-05-07 10:07 50.69371 8.11075 2320 ft 107 kts 108°
2026-05-07 10:08 50.69448 8.12133 2476 ft 101 kts 47°
2026-05-07 10:08 50.70019 8.12825 2603 ft 106 kts 40°
2026-05-07 10:08 50.70219 8.13971 2683 ft 123 kts 89°
2026-05-07 10:08 50.70033 8.15388 2545 ft 140 kts 103°
2026-05-07 10:09 50.69659 8.16819 2480 ft 144 kts 112°
2026-05-07 10:09 50.69156 8.18197 2483 ft 143 kts 127°
2026-05-07 10:09 50.68339 8.18859 2660 ft 131 kts 189°
2026-05-07 10:09 50.67563 8.18179 2635 ft 134 kts 228°
2026-05-07 10:10 50.67021 8.17016 2635 ft 131 kts 249°
2026-05-07 10:10 50.66725 8.15662 2659 ft 129 kts 265°
2026-05-07 10:10 50.66815 8.14315 2732 ft 124 kts 295°
2026-05-07 10:10 50.67239 8.13153 2740 ft 124 kts 308°
2026-05-07 10:11 50.67756 8.12059 2720 ft 124 kts 309°
2026-05-07 10:11 50.68265 8.10961 2705 ft 125 kts 307°
2026-05-07 10:11 50.68767 8.09840 2726 ft 124 kts 305°
2026-05-07 10:11 50.69172 8.08657 2785 ft 123 kts 300°
2026-05-07 10:12 50.69624 8.07489 2713 ft 128 kts 308°
2026-05-07 10:12 50.70213 8.06416 2632 ft 131 kts 313°
2026-05-07 10:12 50.70792 8.05343 2585 ft 116 kts 310°
2026-05-07 10:12 50.71318 8.04735 2577 ft 82 kts 359°
2026-05-07 10:13 50.71707 8.05234 2487 ft 80 kts 68°
2026-05-07 10:13 50.71685 8.06193 2311 ft 91 kts 100°
2026-05-07 10:13 50.71382 8.07044 2068 ft 88 kts 123°
2026-05-07 10:13 50.71043 8.07725 1973 ft 67 kts 120°
2026-05-07 10:14 50.70812 8.08214 1950 ft 50 kts 126°
2026-05-07 10:14 50.70711 8.08317 1944 ft 11 kts 281°
2026-05-07 10:14 50.70716 8.08140 1954 ft 18 kts 241°
2026-05-07 10:14 50.70723 8.07964 1960 ft 20 kts 302°
2026-05-07 10:15 50.70759 8.07796 1974 ft 15 kts 243°
2026-05-07 10:15 50.70757 8.07756 1975 ft 0 kts 303°
2026-05-07 10:17 50.70763 8.07743 1975 ft 10 kts 310°
2026-05-07 10:17 50.70778 8.07720 1975 ft 10 kts 315°
2026-05-07 10:17 50.70808 8.07757 1971 ft 12 kts 103°
2026-05-07 10:17 50.70803 8.07771 1971 ft 0 kts 132°